Regional Weather Roundup
Issued by NWS

Home | Current Version | Previous Version | Graphics & Text | Print | Product List | Glossary On
Versions: 1 2 3 4 5 6 7 8 9 10 11 12 13 14 15 16 17 18 19 20 21 22 23 24 25 26 27 28 29 30 31 32 33 34 35 36 37 38 39 40 41 42 43 44 45 46 47 48 49 50
000
ASUS43 KLMK 211102
RWRKY
KENTUCKY REGIONAL WEATHER ROUNDUP
NATIONAL WEATHER SERVICE LOUISVILLE KY
600 AM EST TUE NOV 21 2017

NOTE "FAIR" INDICATES FEW OR NO CLOUDS BELOW 12,000 FEET
WITH NO SIGNIFICANT WEATHER AND/OR OBSTRUCTIONS TO VISIBILITY.

KYZ001>023-026-027-061>063-070>075-211200-
WESTERN AND SOUTH CENTRAL KENTUCKY

CITY           SKY/WX    TMP DP  RH WIND       PRES   REMARKS
PADUCAH        CLOUDY    40  27  59 S6        29.97F
HENDERSON      CLOUDY    40  30  67 S12       29.97S WCI  33
OWENSBORO      CLOUDY    39  29  67 S10       30.00S WCI  32
HOPKINSVILLE   CLOUDY    40  25  56 S9        30.02F WCI  33
BOWLING GREEN  MOCLDY    37  29  72 S6        30.06R WCI  32
GLASGOW        NOT AVBL
$$

KYZ024-025-028>034-038-045-046-053-211200-
NORTH CENTRAL KENTUCKY

CITY           SKY/WX    TMP DP  RH WIND       PRES   REMARKS
LOUISVILLE/SDF CLOUDY    44  25  47 S12       30.00S
LOUISVILLE/LOU PTCLDY    37  26  64 S7        30.01S WCI  32
FORT KNOX      CLOUDY    38  26  60 S9        29.99S WCI  32
$$

KYZ035>037-039>044-047>052-055>060-089>105-211200-
NORTHEAST KENTUCKY

CITY           SKY/WX    TMP DP  RH WIND       PRES   REMARKS
LEXINGTON      CLEAR     38  27  64 S9        30.02S WCI  31
COVINGTON      MOCLDY    38  26  62 S10       29.96R WCI  31
FRANKFORT      CLEAR     40  26  57 S10       30.00F WCI  33
$$

KYZ054-064>069-076>088-106>120-211200-
SOUTHEAST KENTUCKY

CITY           SKY/WX    TMP DP  RH WIND       PRES   REMARKS
JACKSON        CLEAR     39  23  52 S3        30.05R
LONDON         CLEAR     29  24  82 CALM      30.06S
SOMERSET       CLEAR     39  30  70 S7        30.08S WCI  34
MIDDLESBORO    PTCLDY    36  29  73 CALM      30.10S
MONTICELLO     SUNNY     42  31  64 NE5       30.08R
$$





USA.gov is the U.S. government's official web portal to all federal, state and local government web resources and services.